Wind_Speed
3 3 2 1 3 4 3 6 2 4 3 4 2 6 10 6 7 5 2 22 13 28 31 35 32 30 27 26 25 24 24 23 22 21 20 18 17 15 14 12 11 10 8 7 7 6 5 4 3
6 6 0 1 4 2 5 4 4 5 3 8 7 2 4 5 4 2 5 22 14 26 30 37 35 32 29 29 27 26 25 24 23 22 21 20 19 17 15 13 12 10 9 8 7 5 4 4 3
8 3 2 3 4 5 5 4 3 4 7 5 2 1 3 3 2 3 4 25 18 27 32 39 37 33 30 31 29 27 26 25 24 23 21 20 19 17 16 14 13 11 10 8 6 5 4 3 3
7 3 3 2 6 6 6 6 0 6 6 6 5 2 3 3 8 9 10 25 21 27 33 39 37 34 32 32 31 29 28 26 24 22 21 20 18 17 15 14 12 11 10 9 8 6 5 4 4
2 3 1 2 5 6 5 5 3 6 4 3 1 3 2 3 4 8 15 25 22 26 33 38 37 36 34 33 32 31 29 27 25 23 21 19 18 16 15 13 11 10 10 9 8 6 6 6 7
2 3 0 5 5 5 7 7 2 3 4 7 4 4 2 1 8 8 17 23 21 23 30 36 38 37 36 35 34 33 31 29 27 24 22 20 18 17 15 12 10 10 9 8 8 7 5 7 10
5 4 4 3 3 4 6 4 4 3 3 4 1 2 3 2 9 10 18 19 19 22 27 33 37 38 37 36 36 35 33 31 29 26 24 21 20 17 15 12 11 10 9 9 8 7 8 8 10
4 4 2 5 5 6 4 4 7 6 3 3 2 4 5 3 7 10 13 14 17 21 26 32 36 39 40 40 38 37 35 32 31 29 26 24 22 19 16 14 12 10 10 9 8 7 6 7 8
4 2 5 6 7 5 2 4 4 4 5 2 2 7 5 9 1 7 9 14 17 20 23 27 34 38 41 40 40 39 37 35 33 32 30 28 26 23 20 18 15 12 11 10 9 7 6 6 7
5 5 10 6 7 4 3 2 8 6 7 3 3 5 8 6 7 7 8 16 22 25 29 30 34 39 41 42 42 40 40 39 38 37 36 34 31 27 24 20 17 14 13 11 11 9 8 7 7
7 10 8 6 6 3 5 8 3 10 6 6 10 7 5 4 7 7 14 22 29 35 35 36 38 39 43 45 44 43 43 43 42 42 40 37 33 30 28 24 21 17 15 15 13 12 11 9 8
6 12 13 6 5 3 6 5 8 11 10 10 14 11 6 11 9 8 15 23 28 32 35 36 37 40 44 44 47 47 46 47 47 47 43 41 38 33 30 28 24 21 18 18 16 14 13 12 11
13 6 8 10 6 6 6 16 14 21 11 12 14 15 12 11 12 24 25 21 24 22 27 31 34 39 45 46 44 45 49 50 50 46 46 43 41 38 34 31 26 23 20 20 18 17 15 13 12
2 5 11 6 7 4 8 17 7 11 8 14 15 17 15 12 12 18 20 23 22 23 27 28 29 36 40 46 47 50 47 46 44 47 46 44 42 39 35 32 28 24 22 18 17 17 16 15 14
3 5 3 6 4 8 7 22 31 16 12 17 20 20 17 16 15 13 24 21 29 32 30 30 29 32 39 43 47 47 46 42 43 42 42 46 47 41 35 32 28 24 22 19 19 17 17 16 16
5 5 12 14 11 6 9 31 16 9 16 22 22 14 13 13 13 21 26 26 27 30 36 39 33 27 31 41 44 44 42 42 43 43 43 43 42 39 34 34 32 25 26 22 19 18 16 16 17
4 14 6 4 9 7 18 33 2 5 8 11 10 13 13 17 12 17 25 29 33 39 43 42 37 31 30 35 39 40 38 41 39 36 38 33 34 32 36 35 32 28 27 20 19 17 17 17 19
6 3 2 4 7 15 15 28 11 13 16 16 13 14 13 13 11 16 25 35 39 41 43 39 38 33 28 30 32 32 35 36 36 35 34 31 26 31 33 34 30 25 24 20 17 16 16 18 18
4 3 3 3 1 4 14 19 14 9 11 14 18 19 21 20 15 21 30 35 40 38 38 36 31 28 23 28 29 28 30 30 31 30 30 24 27 29 32 33 27 25 23 20 16 15 16 15 14
7 0 3 5 8 4 4 11 14 13 16 17 18 16 14 9 8 11 23 28 34 37 37 30 30 27 25 29 27 16 23 21 25 25 22 24 25 28 31 28 30 27 22 18 16 17 13 9 9
4 4 3 6 7 13 10 18 14 15 14 16 16 16 16 16 15 15 11 19 32 31 37 29 29 23 23 27 25 17 19 11 19 22 23 24 24 28 26 27 27 24 20 17 17 15 13 9 6
7 4 2 2 1 5 3 13 19 18 20 17 15 16 17 11 15 14 12 11 25 33 31 26 25 22 24 27 28 27 16 12 13 26 24 24 25 24 24 26 23 20 16 16 14 12 11 10 9
7 9 9 8 7 4 5 5 17 5 8 11 16 19 16 16 10 13 13 14 26 27 26 23 22 20 23 27 27 26 18 16 19 23 23 20 20 20 22 25 19 17 15 12 11 9 10 11 10
5 5 4 2 3 4 8 9 24 7 13 15 9 11 12 11 9 10 9 10 12 8 4 5 13 16 20 23 23 25 24 24 25 26 27 23 20 19 19 18 16 13 11 10 9 10 10 10 10
5 5 2 1 2 8 10 11 23 7 9 6 8 9 9 8 9 8 5 1 3 3 6 12 19 21 22 23 26 25 26 30 32 32 25 21 18 18 18 17 14 11 10 11 9 9 10 11 10
6 7 4 6 5 5 6 11 7 12 13 8 7 10 9 10 7 3 3 3 5 8 12 18 23 23 21 23 24 25 27 29 30 29 26 26 25 20 16 14 12 12 11 9 9 10 9 10 10
3 4 7 3 3 1 5 6 7 15 13 11 9 9 12 11 4 4 6 5 6 12 16 20 24 23 23 23 24 25 25 25 28 29 29 26 20 17 15 13 13 11 10 9 9 9 8 8 10
4 3 2 1 4 5 5 5 6 9 4 8 10 10 12 3 7 8 6 6 9 16 20 22 25 25 24 25 25 24 23 24 24 25 24 20 17 14 15 13 11 9 8 8 8 8 9 9 10
3 3 2 3 5 3 3 5 6 8 4 6 14 19 11 8 10 10 7 7 13 17 20 23 25 26 25 25 26 25 24 23 23 21 18 16 14 15 12 11 7 6 6 8 8 10 10 10 10
3 3 5 4 6 4 4 6 7 3 8 12 15 10 5 9 13 12 8 9 11 14 18 22 26 28 28 28 27 24 21 19 18 16 16 15 15 13 11 7 3 4 8 9 10 10 10 10 12
Wind_Direction
168 171 165 113 72 62 245 258 234 289 310 293 165 144 172 160 164 211 291 172 173 184 180 185 182 181 176 175 177 173 170 166 163 160 158 159 162 162 161 163 167 175 181 179 170 163 155 150 140
136 135 140 101 112 123 259 257 224 224 236 311 318 50 134 201 197 268 136 174 181 182 186 187 186 186 181 180 181 179 175 173 169 166 165 164 166 163 163 164 167 172 176 176 173 167 167 162 158
129 113 103 167 157 193 219 196 239 267 270 205 245 275 162 196 178 192 187 176 183 186 191 189 189 189 186 186 185 185 182 180 176 173 171 169 169 166 166 165 166 167 175 177 180 179 189 192 199
129 42 18 134 223 250 199 204 347 298 313 171 185 166 279 209 159 155 180 182 189 191 191 191 192 191 191 192 191 189 188 187 184 181 178 175 174 172 171 166 166 166 174 182 189 199 211 219 231
89 77 225 235 258 275 243 251 247 287 277 273 98 213 197 340 138 162 185 188 193 193 195 195 196 196 196 197 197 195 194 192 191 188 185 185 180 179 178 173 171 173 179 188 196 209 229 245 252
73 106 153 231 238 277 279 238 209 242 256 310 125 158 255 301 193 180 186 191 204 202 198 199 201 202 201 202 202 202 200 199 197 195 193 191 189 186 180 182 181 188 188 192 203 218 235 265 271
144 129 212 241 224 246 249 237 199 225 24 10 225 90 261 310 203 201 194 200 209 209 206 204 206 206 208 209 209 207 206 204 202 200 199 197 195 192 189 188 191 194 198 201 207 217 235 248 259
139 135 218 223 208 246 240 293 178 139 235 185 96 64 316 316 167 179 193 206 214 216 214 213 211 212 213 212 214 215 212 209 208 206 204 203 200 200 198 198 199 201 203 209 208 214 236 255 259
130 126 215 213 183 248 315 321 204 199 199 115 197 164 225 358 165 202 209 223 230 231 228 224 220 220 218 218 220 219 218 216 213 213 210 207 205 203 203 205 206 207 207 211 212 213 231 254 259
171 181 215 204 202 242 262 311 326 329 345 196 288 264 243 269 337 239 238 238 234 238 238 231 228 226 224 224 222 223 219 219 218 217 214 211 209 207 207 209 211 214 214 215 216 222 232 246 256
198 221 211 226 214 255 267 305 268 305 318 286 292 306 314 2 297 229 259 250 246 245 243 237 234 230 226 226 225 225 224 223 222 221 219 216 212 209 209 210 213 216 217 221 222 227 233 246 255
214 223 217 224 179 223 259 303 288 279 266 292 287 284 289 280 254 247 248 260 250 251 255 247 244 237 234 228 227 226 225 224 225 224 223 219 215 211 213 213 216 220 220 227 227 231 235 242 253
235 215 210 227 225 242 276 257 255 264 265 261 269 276 270 263 262 265 261 255 258 254 252 250 249 245 239 231 228 228 229 227 225 226 226 222 218 215 215 217 217 225 229 227 230 234 234 237 247
81 213 238 238 241 228 251 269 252 247 245 265 268 267 262 253 249 259 263 261 259 246 258 268 256 250 237 234 231 231 228 227 226 227 226 225 224 219 219 219 223 224 234 233 236 241 242 243 245
265 279 265 221 203 235 198 267 250 250 249 253 254 260 266 253 251 239 256 257 270 280 288 288 275 254 237 239 237 232 229 224 225 226 228 228 223 222 219 221 224 231 238 237 238 241 243 245 246
190 174 237 232 186 221 158 258 261 208 223 246 256 254 251 259 242 256 265 260 276 290 294 298 288 267 250 241 238 229 225 226 227 225 225 226 224 220 220 222 222 224 231 229 237 238 235 241 249
251 235 214 249 206 182 190 249 203 264 255 256 268 272 264 270 271 266 279 289 292 297 295 294 290 277 259 244 234 228 224 227 225 222 223 219 218 223 221 220 222 227 228 226 227 229 232 242 252
202 170 159 190 200 198 219 248 259 271 270 271 266 267 267 266 258 267 281 290 293 290 290 286 285 278 257 239 228 224 225 227 223 223 221 219 219 226 219 222 218 224 224 223 220 224 234 245 258
44 97 63 343 232 353 235 254 260 264 271 267 266 264 267 270 280 278 281 282 287 286 289 286 284 274 241 217 199 205 209 211 217 220 221 223 226 222 217 217 213 209 220 221 222 228 233 248 265
271 235 237 276 267 231 275 275 277 255 260 258 262 266 261 258 262 266 267 272 280 281 287 283 280 266 236 218 204 197 200 209 210 214 218 223 219 212 210 205 206 203 212 217 221 222 230 246 253
189 201 187 222 291 285 300 286 270 264 245 253 253 253 253 247 254 260 266 266 277 278 284 288 281 257 228 214 191 176 171 169 189 205 208 213 210 206 199 198 199 202 209 217 217 223 232 236 233
238 180 270 329 171 257 37 289 273 272 264 255 251 247 250 230 242 251 255 268 270 278 289 286 268 239 218 207 191 182 172 153 181 194 200 201 203 195 195 196 195 203 213 216 222 233 238 224 216
236 177 207 221 257 283 254 311 278 202 261 263 252 257 250 243 232 251 250 258 276 287 290 277 256 228 206 193 193 185 173 178 174 181 185 180 179 193 191 189 196 205 206 216 231 223 217 221 220
202 183 157 82 137 250 219 197 276 226 243 243 259 250 251 258 256 252 260 283 294 303 276 195 174 166 175 177 179 177 171 158 153 162 161 159 162 173 180 184 194 193 211 222 210 216 221 225 229
184 115 122 107 197 230 187 188 236 261 302 238 266 270 258 254 255 261 255 230 261 198 151 132 137 138 156 163 170 169 167 160 154 156 157 168 171 174 176 179 184 199 199 200 213 218 225 229 230
191 167 168 174 192 213 209 229 249 240 246 286 276 263 273 267 255 234 139 143 153 140 124 131 131 134 145 158 159 158 156 155 151 157 173 175 178 173 173 182 186 186 195 206 218 226 231 238 245
178 177 210 356 289 89 215 280 298 278 273 294 302 285 266 252 197 157 149 134 128 114 118 127 126 132 141 143 144 145 148 153 155 162 165 163 165 169 176 177 179 190 197 213 223 230 244 252 252
175 198 132 308 208 234 253 253 233 305 350 330 317 299 276 192 150 152 133 123 111 118 126 129 131 132 134 134 135 142 150 154 154 154 155 157 156 161 162 166 171 189 201 213 230 248 250 255 259
170 261 230 187 182 209 301 275 229 242 65 324 342 332 289 161 160 147 128 110 115 118 123 123 126 127 129 133 134 134 136 139 145 149 152 152 155 155 157 162 171 191 221 236 249 262 253 247 247
351 269 201 192 251 258 112 290 292 3 33 358 338 332 359 155 150 139 127 116 108 110 118 123 126 127 130 130 130 130 135 144 149 149 150 151 148 152 154 157 171 255 264 258 262 261 257 242 231
Height
770 773 775 776 800 803 804 789 765 764 757 737 736 741 745 743 757 779 730 730 732 737 744 749 753 756 758 761 766 767 769 770 771 773 775 777 779 781 782 784 786 789 791 792 792 793 794 795 797
768 772 776 779 804 816 802 773 768 756 743 737 739 736 739 745 731 729 730 731 733 736 741 745 751 753 755 759 763 765 766 768 769 771 773 775 778 779 781 783 785 788 790 792 793 794 795 796 796
768 772 780 788 799 805 794 766 756 746 739 741 742 732 734 736 727 726 727 729 733 736 739 743 747 751 755 757 760 764 766 767 768 769 771 774 777 779 781 782 785 787 789 792 793 794 795 796 797
767 773 781 796 796 779 769 756 750 751 734 733 733 741 728 723 723 723 727 730 732 736 738 742 746 749 753 757 759 761 764 766 768 770 772 773 776 778 779 781 783 785 788 790 792 793 795 796 797
768 777 796 797 788 770 758 750 747 752 743 734 731 741 733 722 723 724 726 730 733 734 737 741 744 746 750 754 758 760 762 764 767 770 772 774 775 777 779 780 782 784 786 788 790 792 793 795 797
776 780 804 796 784 765 754 744 743 745 738 733 734 739 732 722 722 725 727 730 733 736 737 741 743 744 747 750 755 757 759 762 765 767 770 773 775 777 777 779 781 784 785 786 788 789 791 793 795
774 788 792 787 778 770 757 739 745 742 737 739 730 740 730 721 722 725 727 730 733 735 737 740 742 744 747 750 752 754 757 759 762 765 767 770 773 775 776 778 781 783 784 785 787 788 789 790 792
769 777 783 783 779 769 746 742 734 734 736 722 722 744 742 722 724 726 729 732 733 734 734 735 739 741 743 745 750 754 756 757 760 762 765 767 770 772 775 777 779 781 783 784 785 785 786 788 789
764 786 790 777 773 756 742 748 731 721 727 724 722 726 723 723 725 728 729 731 732 734 734 736 737 740 741 744 748 751 753 755 757 759 761 763 765 768 772 775 778 780 781 783 784 784 784 786 787
768 783 774 755 752 749 741 745 740 735 733 726 724 717 717 721 726 729 730 727 728 729 729 730 732 734 738 741 743 746 749 750 751 753 755 756 759 763 767 772 776 778 779 781 782 783 783 784 784
760 759 753 746 744 743 743 740 737 736 735 726 726 721 721 721 723 726 727 726 724 723 725 724 725 728 730 734 736 740 742 744 746 748 750 752 756 759 762 767 771 774 776 778 779 781 781 782 783
758 746 742 740 741 742 743 737 740 732 730 725 722 721 723 723 724 723 723 720 721 721 720 721 722 723 725 727 728 731 734 737 738 740 744 747 749 756 760 763 768 771 772 775 776 778 779 780 781
748 743 740 739 740 741 740 739 740 725 726 724 723 719 720 720 718 716 715 715 716 717 716 716 715 716 716 720 723 724 725 727 730 735 737 743 744 749 754 759 763 768 770 770 773 775 776 777 778
738 740 742 741 740 741 743 735 735 721 722 719 717 715 713 713 712 709 709 706 709 711 710 708 708 708 709 710 713 713 718 720 726 728 730 737 741 746 752 756 762 764 768 770 772 774 775 775 776
737 747 745 743 741 742 739 736 718 718 719 717 713 710 708 705 705 703 700 701 702 700 699 699 700 702 702 702 703 707 709 714 717 722 727 727 730 739 748 753 760 764 767 769 769 771 772 773 773
742 746 752 730 740 735 737 720 708 707 713 710 703 705 705 699 696 695 695 694 694 692 692 691 691 693 693 694 694 699 702 706 709 712 717 721 726 734 743 748 751 757 758 762 766 767 768 770 770
747 741 749 739 725 732 732 701 706 703 707 709 706 701 698 693 690 689 688 687 686 685 684 682 682 683 683 684 688 691 696 700 704 708 712 719 724 732 736 740 746 750 756 757 759 762 765 766 767
745 748 734 737 728 727 729 711 714 707 707 705 703 697 694 691 688 683 682 680 678 677 676 674 674 674 675 679 683 688 691 695 698 702 708 714 721 727 731 736 742 749 754 755 756 759 762 764 764
735 737 741 733 724 730 726 719 715 712 708 704 697 693 688 684 679 678 676 673 671 669 668 667 667 667 671 674 677 684 685 690 694 700 706 712 717 721 725 731 738 743 750 752 754 756 759 761 761
737 741 744 736 727 730 729 726 718 714 707 700 695 689 688 685 680 673 669 667 666 663 662 660 660 660 663 667 672 676 681 687 691 699 706 708 711 716 721 728 736 740 746 750 752 754 756 757 758
737 740 739 741 729 721 728 716 709 695 692 687 683 681 677 676 673 666 664 661 658 656 654 654 654 656 660 665 669 674 680 686 691 697 701 705 709 715 719 724 732 738 743 747 749 751 752 754 755
743 731 731 733 737 747 727 728 704 692 684 680 677 674 666 669 663 659 657 656 652 648 649 648 649 652 655 660 666 669 671 678 684 691 696 700 707 715 722 724 731 737 740 744 746 747 748 750 752
731 727 733 736 740 741 735 751 681 682 685 679 668 661 658 656 657 654 651 649 647 646 643 642 643 646 651 656 661 668 673 678 682 689 696 703 710 716 722 725 729 733 737 741 742 743 745 747 749
719 727 733 737 745 754 731 744 686 687 672 663 661 659 653 651 650 649 646 647 646 643 642 641 641 645 651 656 661 665 670 677 681 688 695 703 710 717 721 723 728 732 735 738 740 742 743 744 745
722 735 755 763 760 737 720 733 680 672 663 663 658 652 650 647 647 645 645 646 646 645 644 643 642 647 652 656 662 665 671 676 681 689 697 703 708 715 719 722 727 730 734 737 738 740 741 742 743
725 730 747 736 738 730 713 716 688 663 656 653 651 650 645 644 640 640 643 645 646 645 644 644 645 649 655 660 664 668 673 678 686 692 698 704 710 715 720 723 727 731 734 736 737 738 739 740 741
719 727 718 729 723 728 715 692 674 654 654 649 651 648 644 637 638 642 643 645 647 646 647 649 649 654 659 664 666 671 677 682 689 696 701 708 714 717 720 724 728 731 733 734 736 736 737 738 739
712 711 725 740 729 726 706 697 689 667 662 659 655 648 638 635 639 641 644 647 649 649 651 653 655 658 663 666 670 676 681 687 693 699 705 710 714 717 721 724 727 729 731 732 733 733 735 736 736
712 719 717 724 727 717 711 697 668 657 657 663 652 640 635 636 637 641 645 648 651 653 655 657 660 663 667 671 675 680 686 691 697 702 706 710 714 717 721 724 726 728 730 730 730 731 732 733 734
716 713 716 725 715 713 718 705 653 656 662 660 651 646 640 636 636 642 647 650 653 657 660 662 664 668 673 676 680 685 690 695 700 704 707 711 714 718 721 724 726 727 727 728 728 728 728 729 731